Location: Blienschwiller
(48.3416°N, 7.4182°E)
Time: 20:19:48
(UTC+00:00)

CZ-2C R/B - Pass Details

Date: 18 February 2020
Orbit: 668 x 785 km, 98.1° (Epoch: 29 March)

Event Time Altitude Azimuth Distance (km) Brightness Sun altitude
Rises 03:50:47 0° 14° (NNE) 3,288 6.1 -27.5°
Reaches altitude 10° 03:53:08 10° 15° (NNE) 2,353 5.3 -27.2°
Maximum altitude 03:58:22 82° 103° (ESE) 791 2.5 -26.3°
Enters shadow 03:59:18 60° 180° (S) 885 2.6 -26.2°
